Satellite-Ground Cal/Val Region Overpasses Predictions

Prediction of Satellite NPP Overpassing Cal/Val Region: PacNW

Region Location: (Latitude: 10.00, Longitude: 139.50) to (Latitude: 22.70, Longitude: 165.60).

Table of predicted overpasses for the next 14.0 days since TLE Epoch: 6/11/2022
Interval Starting Time Starting Location Ending Time Ending Location
1 06/11/2022 15:36:17 ( 22.65, 150.91) 06/11/2022 15:39:52 ( 10.03, 147.90)
2 06/12/2022 02:45:22 ( 10.06, 158.42) 06/12/2022 02:48:57 ( 22.68, 155.42)
3 06/12/2022 15:17:15 ( 22.70, 155.67) 06/12/2022 15:20:51 ( 10.02, 152.65)
4 06/13/2022 02:26:21 ( 10.01, 163.19) 06/13/2022 02:29:57 ( 22.69, 160.17)
5 06/13/2022 14:58:15 ( 22.69, 160.42) 06/13/2022 15:01:51 ( 10.01, 157.41)
6 06/14/2022 02:10:10 ( 20.00, 165.59) 06/14/2022 02:10:56 ( 22.69, 164.92)
7 06/14/2022 03:48:50 ( 10.01, 142.56) 06/14/2022 03:52:26 ( 22.70, 139.55)
8 06/14/2022 14:39:14 ( 22.68, 165.17) 06/14/2022 14:42:50 ( 10.01, 162.16)
9 06/14/2022 16:20:44 ( 22.68, 139.80) 06/14/2022 16:21:04 ( 21.51, 139.51)
10 06/15/2022 03:29:50 ( 10.02, 147.32) 06/15/2022 03:33:25 ( 22.64, 144.31)
11 06/15/2022 16:01:44 ( 22.68, 144.55) 06/15/2022 16:05:19 ( 10.06, 141.55)
12 06/16/2022 03:10:50 ( 10.03, 152.07) 06/16/2022 03:14:25 ( 22.65, 149.06)
13 06/16/2022 15:42:43 ( 22.67, 149.30) 06/16/2022 15:46:18 ( 10.05, 146.30)
14 06/17/2022 02:51:49 ( 10.04, 156.82) 06/17/2022 02:55:24 ( 22.66, 153.81)
15 06/17/2022 15:23:43 ( 22.66, 154.05) 06/17/2022 15:27:18 ( 10.04, 151.05)
16 06/18/2022 02:32:49 ( 10.05, 161.57) 06/18/2022 02:36:24 ( 22.67, 158.56)
17 06/18/2022 15:04:42 ( 22.65, 158.80) 06/18/2022 15:08:17 ( 10.03, 155.80)
18 06/19/2022 02:14:42 ( 13.23, 165.59) 06/19/2022 02:17:23 ( 22.68, 163.31)
19 06/19/2022 03:55:17 ( 10.00, 140.96) 06/19/2022 03:57:03 ( 16.23, 139.51)
20 06/19/2022 14:45:41 ( 22.70, 163.57) 06/19/2022 14:49:17 ( 10.02, 160.55)
21 06/20/2022 03:36:17 ( 10.01, 145.71) 06/20/2022 03:39:53 ( 22.69, 142.69)
22 06/20/2022 14:29:54 ( 11.30, 165.60) 06/20/2022 14:30:16 ( 10.01, 165.30)
23 06/20/2022 16:08:10 ( 22.69, 142.94) 06/20/2022 16:11:46 ( 10.01, 139.92)
24 06/21/2022 03:17:16 ( 10.02, 150.46) 06/21/2022 03:20:51 ( 22.64, 147.46)
25 06/21/2022 15:49:10 ( 22.68, 147.69) 06/21/2022 15:52:46 ( 10.00, 144.68)
26 06/22/2022 02:58:16 ( 10.03, 155.21) 06/22/2022 03:01:51 ( 22.66, 152.21)
27 06/22/2022 15:30:09 ( 22.67, 152.44) 06/22/2022 15:33:44 ( 10.05, 149.44)
28 06/23/2022 02:39:15 ( 10.04, 159.96) 06/23/2022 02:42:50 ( 22.67, 156.96)
29 06/23/2022 15:11:09 ( 22.66, 157.19) 06/23/2022 15:14:44 ( 10.04, 154.19)
30 06/24/2022 02:20:15 ( 10.06, 164.71) 06/24/2022 02:23:50 ( 22.68, 161.71)
